Regional Weather Roundup
Issued by NWS Sterling, VA

Home | Current Version | Previous Version | Graphics & Text | Print | Product List | Glossary On
Versions: 1 2 3 4 5 6 7 8 9 10 11 12 13 14 15 16 17 18 19 20 21 22 23 24 25 26 27 28 29 30 31 32 33 34 35 36 37 38 39 40 41 42 43 44 45 46 47 48 49 50
000
ASUS41 KLWX 020010
RWRLWX

REGIONAL WEATHER ROUNDUP
NATIONAL WEATHER SERVICE BALTIMORE MD/WASHINGTON DC
800 PM EDT MON SEP 01 2014

Note: "FAIR" indicates few or no clouds below 12,000 feet
with no significant weather and/or obstructions to visibility.
 TC=TEMPERATURE CELSIUS

 * =Non NWS site. Station does not report precipitation (e.g. rain,
    snow, etc.), thunder, or fog.

DCZ001-MDZ009-015-VAZ040>042-051-053>054-020100-
WASHINGTON METRO

CITY           SKY/WX    TMP DP  RH WIND       PRES   REMARKS
WASHINGTON NAT MOCLDY    84  72  67 SE3       29.96S
DULLES         PTCLDY    79  73  82 S6        29.96S
ANDREWS AFB    CLEAR     80  74  82 SE2       29.97R
QUANTICO       CLEAR     82  75  79 S3        29.96S
COLLEGE PARK*  CLEAR     82  75  78 CALM      29.96R
LEESBURG*      CLEAR     82  77  83 S6        29.96F HX  91
MANASSAS*      CLEAR     81  75  83 SE6       29.96
GAITHERSBURG*  CLEAR     79  72  78 SE6       30.00F

$$

MDZ006>007-011-014-020100-
BALTIMORE METRO

CITY           SKY/WX    TMP DP  RH WIND       PRES   REMARKS
BWI AIRPORT    PTCLDY    82  73  74 CALM      29.95S
MD SCIENCE CTR   N/A     86  72  62 MISG      29.95R HX  92
ANNAPOLIS      MOCLDY    82  75  79 CALM      29.96R
FORT MEADE*    CLEAR     77  73  88 CALM      29.98S

$$

MDZ012-015-019>023-020100-
MARYLAND EASTERN SHORE

CITY           SKY/WX    TMP DP  RH WIND       PRES   REMARKS
OCEAN CITY     MOCLDY    81  77  88 SW8       29.97R
SALISBURY      PTCLDY    82  69  64 S8        29.97R
BAY BRIDGE AP*   N/A     81  77  89 S3        29.96R
EASTON*        PTCLDY    86  77  74 CALM      30.00R HX  97

$$

MDZ017>025-020100-
SOUTHERN MARYLAND

CITY           SKY/WX    TMP DP  RH WIND       PRES   REMARKS
PATUXENT RIVER CLEAR     82  72  71 SW8       29.96R
ST INIGOES     PTCLDY    81  71  71 S5        29.96R
LEONARDTOWN*   MOCLDY    82  72  69 SE3       29.99R

$$

MDZ003>005-020100-
NORTH CENTRAL MARYLAND

CITY           SKY/WX    TMP DP  RH WIND       PRES   REMARKS
FREDERICK*     CLEAR     81  75  83 CALM      29.97F
HAGERSTOWN APT CLEAR     83  69  62 S6        29.95R
WESTMINSTER*   CLEAR     82  75  78 S5        29.97F

$$

MDZ501>502-020100-
WESTERN MARYLAND

CITY           SKY/WX    TMP DP  RH WIND       PRES   REMARKS
OAKLAND*       PTCLDY    70  70 100 SW6       30.10R
CUMBERLAND*    PTCLDY    84  64  51 SW6       30.01R

$$

VAZ025>031-020100-
SHENANDOAH VALLEY

CITY           SKY/WX    TMP DP  RH WIND       PRES   REMARKS
WINCHESTER*    CLEAR     81  66  61 S5        29.97R
STAUNTON*      CLEAR     83  64  53 SW5       30.03R

$$

WVZ021-048>050-054>055-020100-
EASTERN WEST VIRGINIA PANHANDLE

CITY           SKY/WX    TMP DP  RH WIND       PRES   REMARKS
MARTINSBURG    CLEAR     82  69  64 CALM      29.96R
PETERSBURG*    NOT AVBL

$$

VAZ036>039-050-020100-
CENTRAL FOOTHILLS

CITY           SKY/WX    TMP DP  RH WIND       PRES   REMARKS
CHARLOTTESVILL CLEAR     83  69  62 SW5       29.98R
ORANGE*        CLEAR     82  70  65 S3        29.98S

$$

VAZ055>057-020100-
NORTH AND CENTRAL PIEDMONT

CITY           SKY/WX    TMP DP  RH WIND       PRES   REMARKS
FREDERICKSBRG* CLEAR     82  78  87 S7        29.95S HX  90
STAFFORD*      CLEAR     79  79 100 CALM      30.00S

$$

NCZ024-NYZ072-PAZ021-071-VAZ022-071-020100-
OTHER REGIONAL OBSERVATIONS

CITY           SKY/WX    TMP DP  RH WIND       PRES   REMARKS
NEW YORK CITY  PTCLDY    81  71  71 CALM      29.96R
PHILADELPHIA   PTCLDY    84  73  69 S9        29.95R HX  90
PITTSBURGH     PTCLDY    77  69  76 S5        29.94F
ROANOKE        PTCLDY    82  64  54 SW5       30.07R
RICHMOND       PTCLDY    86  70  58 SW9       29.99R HX  90
RALEIGH        MOCLDY    82  70  66 CALM      30.04R

$$

ANZ530>537-020100-
MARINE OBSERVATIONS

STATION/POSITION TIME  TEMP    WIND        PRES
                       AIR SEA DIR/SP/G
                 (UTC) (F)     (DEG/KT/KT) (MB)
THOMAS PT LIGHT  0000   83 80  210/  5/  5 1015.5R
BALT KEY BRIDGE  0000          200/  6/  8 1014.1R
COVE POINT       0000   83     190/ 10/ 11 1014.4R
LEWISETTA        0000   81 83  190/  7/  9 1014.3R
SOLOMONS ISLAND  0000      81                N/A
PINEY POINT      0000          200/  7/  8   N/A

$$



USA.gov is the U.S. government's official web portal to all federal, state and local government web resources and services.